Location: De Har
(53.3413°N, 6.6858°E)
Time: 20:51:25
(UTC+00:00)

Cosmos 1602 Rocket - Pass Details

Date: 22 April 2026
Orbit: 596 x 626 km, 82.5° (Epoch: 21 May)

Event Time Altitude Azimuth Distance (km) Brightness Sun altitude
Rises 00:30:35 0° 342° (NNW) 2,864 7.9 -23.3°
Reaches altitude 10° 00:32:57 10° 334° (NNW) 1,953 6.7 -23.2°
Enters shadow 00:36:28 34° 281° (W) 995 4.5 -23.1°
